Terminal Aerodrome Forecast
Issued by NWS

Home | Current Version | Previous Version | Text Only | Print | Product List | Glossary On
Versions: 1 2 3 4 5 6 7 8 9 10 11 12 13 14 15 16 17 18 19 20 21 22 23 24 25 26
000
FTUS44 KLZK 290200 AAA
TAFLLQ
TAF AMD
KLLQ 290208Z 2902/2924 01006KT 6SM -RA OVC006
     FM290600 VRB04KT P6SM VCFG BKN015
      TEMPO 2909/2913 4SM BR
     FM291500 02005KT P6SM SCT015 BKN250
     FM291700 04005KT P6SM BKN250=

USA.gov is the U.S. government's official web portal to all federal, state and local government web resources and services.